User: anonymous   Login
Location: Wellington
(41.3000°S, 174.7830°E)
Time: 18:19:24
(UTC+13:00)
Language:

USA 32 - Orbit

View from above orbital plane
View from above orbital plane
View from above satellite
View from above satellite

Ground track
Ground track

The orbit data is extracted from the following two-line orbital elements,

1 19460U 88078A   19077.08940804 0.00000040  00000-0  14501-4 0    00
2 19460  84.9840 211.0994 0006004 308.4219  51.5780 14.33467066    04
Epoch (UTC): 18 March 2019 02:08:44
Eccentricity: 0.0006004
inclination: 84.9840°
perigee height: 776 km
apogee height: 784 km
right ascension of ascending node: 211.0994°
argument of perigee: 308.4219°
revolutions per day: 14.33467066
mean anomaly at epoch: 51.5780°
orbit number at epoch: 0

The dashed part of the orbit path shows where the satellite is in the earth's shadow,  

DLR